F1PPH-2 Weather Reports


Display with metric or nautical units.
time (UTC)temp
F
wind
direction
speed
MPH
gust
MPH
rain 1hr
in
rain 24hr
in
rain mn
in
humidity
%
barometer
mb
20260507163712 77 0.0 0.0 0.00 0.00 0.00 52 1005.9
20260507153707 80 0.0 0.0 0.00 0.00 0.00 51 1006.1
20260507144812 86 0.0 0.0 0.00 0.00 0.00 49 1006.4
20260507130026 99 0.0 0.0 0.00 0.00 0.00 43 1007.5
20260507112357 100 0.0 0.0 0.00 0.00 0.00 39 1008.7
20260507094756 106 0.0 0.0 0.00 0.00 0.00 32 1006.5
20260507084756 89 0.0 0.0 0.00 0.00 0.00 44 1008.6
20260507074757 84 0.0 0.0 0.00 0.00 0.00 46 1008.3
20260507065959 67 0.0 0.0 0.00 0.00 0.00 54 1008.4
20260507060033 56 0.0 0.0 0.00 0.00 0.00 59 1008.1
20260507040048 48 0.0 0.0 0.00 0.00 0.00 62 1007.4
20260507031209 50 0.0 0.0 0.00 0.00 0.00 62 1007.2
20260507021209 52 0.0 0.0 0.00 0.00 0.00 62 1007.2
20260507011209 52 0.0 0.0 0.00 0.00 0.00 62 1007.1
20260507001208 53 0.0 0.0 0.00 0.00 0.00 62 1007.1
20260506221207 57 0.0 0.0 0.00 0.00 0.00 61 1006.7
20260506211207 58 0.0 0.0 0.00 0.00 0.00 61 1006.4
20260506201207 58 0.0 0.0 0.00 0.00 0.00 61 1005.9
20260506191207 60 0.0 0.0 0.00 0.00 0.00 61 1005.2
20260506181207 63 0.0 0.0 0.00 0.00 0.00 60 1004.9
20260506171206 69 0.0 0.0 0.00 0.00 0.00 57 1004.6